Vertical_Velocity
-0 1 -0 -0 0 0 0 -0 0 -0 0 0 1 1 1 0 -1 -1 -1 -2 -1 -1 -1 -1 -1 -1 -1 -1 -2 -1 -2 -1 -1 -1 -1 -1 -1 -2 -3 -3 -4 -1 -3 0 -1 -2 -6
1 1 0 1 -0 -1 -0 -1 -1 -2 -0 0 0 1 0 0 -0 0 0 -1 -1 -1 -1 -1 -1 -1 1 0 -0 -2 -1 -1 -1 -0 -2 -3 -3 -3 -3 -0 -2 -1 -2 -1 -4 -2 -5
0 0 -0 -1 -1 -1 -1 -1 -1 -1 0 -1 0 2 -1 0 0 1 -0 0 -2 -2 -1 -1 -1 -1 -1 -2 -1 1 -1 -1 -1 -1 -2 -1 -3 -2 -1 -3 -2 -1 -2 -1 2 -0 1
-0 -0 0 0 1 -0 0 1 -0 -1 -1 1 0 -1 -1 1 -1 -0 1 1 -0 -2 -1 -1 -1 -1 -0 -1 -2 -2 -1 -1 -0 -1 -2 -2 -0 1 -0 -1 -1 -3 -4 -5 -5 -4 -1
-1 -1 0 1 1 0 0 0 -1 -2 -1 -2 -1 0 0 0 -0 -1 -1 -1 -1 -1 -2 -1 -0 0 -2 -1 1 -0 -1 -1 -2 -2 -1 -1 -1 -2 -2 -2 -3 -0 -2 -0 -1 -1 2
0 -0 0 -0 -1 -1 0 -0 -0 -1 -1 -1 -1 -0 -1 -1 1 -1 -1 -0 -0 -1 -1 -1 -1 -1 -1 -2 -0 -1 -2 -2 -2 -0 -1 -2 -2 -1 -0 1 -2 -1 -3 2 3 -4 -1
0 -0 -1 1 -0 -1 -2 -1 -1 -0 -0 -0 -0 0 -1 -1 -0 0 -1 -1 -0 -0 -0 -1 -1 -2 -1 -2 -2 -2 -2 -3 -0 1 0 -0 -1 -3 -3 -2 -1 -0 2 -3 -1 2 -4
-1 -1 0 -0 -2 -1 -1 -1 -1 -0 -1 -1 -1 -1 -1 -0 -0 -1 0 -1 -1 -1 -2 -2 -2 -1 -1 -1 -1 -2 -1 -2 -2 -1 -2 -2 -3 -1 -2 -2 -0 0 -0 1 2 3 2
-3 -2 -2 -2 -2 -1 -1 -1 -2 -1 -1 -1 -2 -2 -1 -2 -0 -0 -0 -0 -1 -1 -3 -2 -1 0 0 -0 0 -1 -1 -2 -3 -2 -1 -1 0 -1 -0 -1 -1 -0 -1 0 3 -5 -0
-2 -2 -2 -2 -2 -2 -1 -1 -1 -2 -0 -1 -1 -1 -2 -2 -1 -1 -0 -1 -1 -1 -2 -2 -1 -1 -1 -0 0 -1 -2 -2 -3 -3 -2 -1 -1 -1 -1 -2 -2 -4 -4 -3 3 -0 -2
-0 -0 -0 -1 -2 -1 -1 -1 -2 -1 -0 0 -0 -1 -1 -0 1 -0 -0 -0 -0 -0 -3 -1 -1 1 -0 -2 -1 -1 -2 -2 -2 -1 -0 -0 0 1 -1 -1 -1 -0 0 -0 -1 1 -1
-1 -1 -1 -1 -1 -1 -1 -2 -1 -1 -2 -1 -1 -2 -1 -1 1 -0 -1 -0 -0 -1 -3 -1 -1 -1 -2 -1 -1 -3 -3 -2 -1 -1 -1 1 -1 -1 -0 2 1 -1 -5 0 1 0 -2
-2 -1 -0 -0 -0 -1 -0 0 -0 -1 -1 -2 -2 -1 -2 -0 -1 -1 -0 0 -0 0 -1 -3 -3 -2 -2 -1 -3 -2 0 0 -4 -4 -4 0 -0 -1 -1 0 -2 -3 -3 -3 -5 -3 -5
-2 -1 -2 -3 -1 -1 -2 -1 -1 1 -1 -0 -0 -1 -2 -1 -1 -1 0 0 -1 -2 -4 -3 -2 -1 -1 -1 -2 -2 -3 -2 -2 -1 -3 -3 -8 1 -2 0 3 -2 -6 -3 -0 -1 -4
0 -0 1 -1 -1 -2 -2 -2 -1 0 0 -1 0 -1 -1 -0 0 1 -1 -0 -3 -2 -1 -1 -1 -2 -2 -2 -2 -3 -1 0 0 -1 -5 0 -3 -1 -3 -2 2 1 -1 -1 -0 -0 1
-0 -2 1 1 -1 -1 -1 -1 -2 -3 -1 0 -2 -1 -2 -0 1 2 -1 -0 -1 -1 -1 -0 0 0 -1 -1 -1 -2 -2 -2 -3 -2 -1 -4 -9 -3 -1 -4 2 0 0 -2 0 -2 -2
-2 -0 -2 0 -1 -2 -2 -2 -2 -1 -1 -1 -0 -0 -1 -1 -0 0 1 -0 -1 -1 -3 -3 -2 -2 -2 -3 -2 -2 -2 -4 -1 -1 0 3 1 -6 4 3 2 2 -2 1 -0 -1 -1
-0 -1 -1 1 -2 -2 -2 -2 -3 -1 -3 -2 -0 -1 0 1 -1 0 0 -0 -0 0 -0 -0 -1 -1 -2 -1 -3 -3 -3 -1 0 2 -1 -2 -1 -5 -4 -1 -0 -3 -1 1 -0 -2 -2
-0 -2 -2 -1 1 -1 -2 -2 -3 -1 -2 -1 -2 -3 -0 0 -2 -2 -3 -2 -1 -0 -1 -2 -2 -2 -2 -1 -1 -1 0 -1 -1 -2 -2 -3 3 -4 1 -0 -0 2 0 1 3 6 -5
-1 -2 2 -3 -1 -1 0 1 -1 -2 -1 -1 -1 -1 -1 -0 0 -0 1 -0 -0 -1 -1 1 0 -1 -0 -0 3 -3 -3 -0 -1 0 1 4 2 -1 -8 -1 3 -3 2 2 8 7 -5
-2 -5 -3 -2 -2 -2 -1 -0 2 1 -0 -1 -2 -2 -1 -0 1 1 0 -3 0 1 1 1 -5 1 1 -3 -4 -4 -0 3 -0 -1 0 1 -5 1 2 -2 0 -6 1 7 5 -5 7
5 -5 -2 0 -1 -0 -0 -3 4 -1 3 1 0 3 -1 1 -0 1 2 1 1 5 4 1 -3 1 -0 -3 7 0 2 3 4 -1 2 1 -8 -1 -7 -3 0 -10 -7 5 7 0 -5
-2 1 -0 4 0 1 3 -2 2 2 -0 3 4 3 2 -1 2 2 -1 4 1 2 1 -2 2 -0 -0 2 2 1 -0 1 4 5 5 6 3 0 -14 -1 5 -11 -2 1 0 3 5
-1 -2 -3 -1 0 -3 0 1 1 -3 -5 1 0 3 2 -8 3 3 1 -1 1 2 0 2 1 2 5 2 1 -2 -4 -5 -2 5 8 3 7 9 -11 1 2 -4 1 1 -0 3 3
4 0 -1 0 1 -1 6 4 3 2 -1 0 -1 2 4 -7 4 1 4 -0 -1 3 -5 2 1 5 3 1 -5 -6 -7 -7 -6 -7 -1 6 12 5 0 -0 -20 -9 -7 -1 1 0 -5
-1 2 1 0 -1 -1 1 2 1 0 -4 5 3 -0 1 2 -12 3 3 3 -3 -2 0 -1 -0 5 7 -0 5 -3 -6 -2 -4 -4 4 -1 7 13 12 1 -3 -1 1 6 3 -15 2
2 -1 0 -1 2 4 3 -4 2 2 -7 -2 6 4 3 -2 2 -1 -3 4 2 1 -5 -2 -5 -2 2 5 2 5 -13 7 -5 -3 -5 3 3 -13 3 4 -10 4 4 1 3 -11 1
-2 -1 -0 -3 1 3 3 -2 5 4 1 -3 6 3 -2 -4 4 -3 4 3 1 2 0 2 5 -14 -3 0 10 -2 -5 2 -3 -9 -6 4 9 -4 12 8 -5 -1 -3 2 5 -5 11
-1 -4 -1 5 -0 -4 2 -2 2 3 1 -0 -5 7 -4 -6 -4 2 3 -4 -0 -0 1 0 3 12 17 4 3 10 2 -1 1 -14 11 -4 -0 5 -0 -6 -0 -0 7 7 5 -1 -8
Height
3198 3198 3197 3196 3195 3194 3192 3191 3189 3187 3184 3182 3179 3175 3173 3171 3169 3168 3168 3168 3168 3168 3168 3168 3168 3167 3166 3166 3164 3161 3158 3156 3154 3152 3151 3149 3148 3146 3144 3144 3144 3143 3143 3143 3143 3143 3141
3200 3199 3199 3198 3197 3196 3194 3192 3191 3189 3186 3183 3181 3178 3175 3174 3172 3171 3170 3170 3170 3170 3170 3170 3169 3168 3167 3166 3163 3160 3158 3156 3154 3153 3151 3150 3148 3146 3145 3145 3145 3145 3143 3143 3142 3140 3139
3202 3201 3200 3200 3199 3197 3196 3194 3192 3190 3187 3185 3183 3181 3179 3176 3175 3174 3173 3173 3172 3172 3171 3171 3170 3169 3167 3167 3163 3161 3158 3157 3155 3154 3152 3150 3148 3148 3146 3145 3145 3144 3143 3141 3139 3139 3137
3203 3202 3202 3201 3199 3198 3197 3195 3193 3191 3189 3187 3185 3184 3181 3179 3178 3176 3175 3174 3174 3174 3173 3172 3171 3170 3168 3166 3163 3161 3159 3158 3156 3154 3153 3151 3149 3149 3147 3146 3145 3144 3142 3140 3139 3137 3135
3204 3203 3203 3201 3200 3199 3197 3195 3194 3192 3190 3189 3187 3185 3183 3181 3180 3178 3177 3176 3175 3175 3174 3173 3172 3170 3169 3166 3164 3162 3160 3158 3156 3155 3154 3152 3151 3150 3148 3146 3145 3143 3142 3140 3137 3135 3132
3204 3204 3203 3202 3201 3199 3197 3196 3194 3193 3191 3190 3188 3186 3184 3182 3181 3180 3178 3177 3176 3176 3175 3174 3172 3173 3170 3168 3164 3162 3160 3159 3158 3156 3155 3153 3151 3149 3148 3146 3145 3142 3140 3139 3136 3135 3131
3205 3204 3203 3202 3201 3200 3198 3196 3195 3193 3192 3190 3189 3187 3185 3184 3182 3180 3179 3178 3179 3178 3175 3174 3173 3171 3169 3168 3165 3163 3161 3159 3158 3156 3154 3152 3152 3149 3148 3146 3144 3142 3139 3136 3134 3132 3128
3204 3204 3203 3202 3201 3199 3198 3196 3195 3193 3192 3190 3189 3188 3186 3184 3182 3181 3179 3177 3176 3177 3176 3174 3173 3171 3169 3167 3165 3163 3161 3160 3158 3156 3154 3154 3151 3149 3148 3147 3145 3143 3139 3135 3133 3132 3127
3204 3204 3203 3201 3200 3199 3198 3196 3195 3193 3192 3190 3189 3188 3186 3185 3183 3181 3179 3177 3176 3176 3176 3175 3173 3171 3170 3168 3165 3163 3161 3159 3158 3156 3153 3151 3151 3149 3148 3147 3145 3142 3139 3135 3131 3127 3125
3204 3203 3202 3201 3200 3199 3198 3196 3194 3193 3192 3190 3189 3187 3186 3184 3185 3181 3179 3176 3175 3175 3176 3177 3173 3171 3170 3167 3166 3163 3161 3161 3158 3156 3154 3153 3151 3149 3147 3145 3142 3140 3138 3134 3130 3127 3125
3203 3203 3202 3201 3200 3199 3197 3196 3194 3192 3191 3189 3187 3186 3185 3183 3182 3180 3179 3176 3175 3175 3176 3177 3173 3171 3168 3168 3167 3164 3162 3159 3158 3156 3156 3154 3150 3147 3146 3144 3141 3139 3136 3131 3128 3125 3124
3202 3202 3201 3200 3199 3198 3197 3196 3194 3192 3190 3188 3187 3185 3184 3183 3181 3179 3177 3176 3176 3177 3174 3175 3173 3171 3169 3167 3165 3164 3162 3160 3157 3155 3154 3151 3149 3147 3145 3143 3140 3137 3132 3128 3126 3124 3124
3200 3201 3200 3199 3198 3197 3195 3194 3192 3191 3189 3187 3186 3184 3183 3182 3180 3178 3177 3176 3177 3174 3176 3174 3172 3170 3168 3166 3165 3163 3161 3159 3158 3156 3153 3150 3148 3147 3145 3142 3139 3136 3132 3128 3129 3126 3124
3198 3199 3198 3197 3196 3195 3194 3192 3191 3189 3187 3186 3184 3183 3181 3181 3179 3177 3176 3176 3174 3174 3172 3171 3170 3169 3168 3166 3165 3162 3160 3158 3157 3155 3153 3151 3147 3147 3144 3142 3139 3134 3134 3135 3135 3131 3125
3195 3196 3196 3195 3194 3193 3192 3190 3188 3187 3185 3184 3183 3181 3180 3179 3177 3176 3176 3174 3172 3172 3171 3170 3169 3167 3167 3165 3164 3161 3159 3158 3156 3155 3156 3152 3148 3144 3142 3141 3139 3134 3133 3133 3131 3128 3127
3192 3192 3193 3193 3192 3191 3190 3188 3187 3185 3184 3182 3181 3180 3178 3177 3176 3175 3174 3172 3171 3170 3169 3169 3168 3167 3165 3164 3163 3160 3158 3157 3156 3154 3151 3149 3145 3141 3140 3138 3135 3134 3134 3132 3130 3128 3124
3188 3188 3189 3189 3188 3187 3186 3185 3184 3183 3181 3180 3178 3177 3176 3175 3174 3173 3172 3170 3169 3168 3168 3168 3167 3165 3164 3163 3161 3159 3158 3156 3153 3151 3149 3146 3144 3141 3137 3134 3132 3131 3130 3130 3129 3128 3125
3182 3183 3184 3184 3184 3184 3182 3182 3181 3180 3178 3177 3175 3175 3173 3172 3173 3170 3169 3168 3168 3166 3166 3165 3164 3163 3162 3160 3158 3156 3155 3153 3151 3149 3146 3144 3141 3135 3133 3129 3126 3125 3125 3125 3125 3123 3120
3174 3175 3176 3177 3178 3178 3178 3177 3176 3176 3175 3173 3172 3171 3170 3169 3169 3167 3167 3166 3165 3164 3163 3162 3162 3160 3159 3157 3156 3152 3150 3150 3147 3146 3143 3140 3136 3131 3127 3127 3124 3121 3119 3120 3119 3116 3109
3167 3168 3169 3169 3170 3172 3173 3172 3171 3171 3170 3170 3169 3167 3166 3165 3164 3164 3163 3162 3162 3161 3159 3158 3157 3156 3154 3153 3152 3150 3147 3145 3143 3142 3140 3137 3130 3127 3125 3122 3121 3117 3113 3111 3112 3106 3100
3159 3160 3161 3162 3162 3163 3165 3166 3166 3165 3165 3164 3163 3161 3161 3160 3160 3160 3159 3159 3157 3156 3155 3153 3152 3152 3150 3148 3147 3144 3142 3140 3137 3135 3132 3131 3123 3121 3116 3115 3112 3108 3103 3102 3099 3094 3094
3152 3153 3153 3154 3154 3155 3157 3158 3158 3159 3158 3157 3157 3157 3156 3155 3155 3155 3154 3153 3153 3152 3151 3149 3147 3147 3145 3143 3142 3138 3136 3135 3131 3128 3126 3122 3115 3111 3104 3106 3102 3094 3092 3088 3087 3083 3079
3142 3144 3145 3145 3146 3147 3148 3149 3149 3150 3151 3149 3149 3149 3148 3148 3148 3148 3148 3148 3147 3146 3146 3143 3143 3140 3138 3138 3135 3133 3130 3129 3127 3121 3119 3116 3112 3108 3097 3099 3095 3084 3075 3074 3075 3075 3074
3132 3132 3134 3135 3136 3136 3136 3139 3139 3140 3141 3143 3142 3142 3141 3139 3141 3142 3142 3141 3142 3141 3140 3138 3137 3134 3134 3130 3128 3125 3122 3120 3118 3113 3110 3105 3105 3104 3096 3096 3089 3075 3073 3072 3070 3069 3068
3121 3123 3124 3125 3126 3127 3127 3130 3130 3131 3133 3135 3134 3134 3132 3129 3133 3135 3134 3134 3134 3134 3133 3132 3132 3130 3127 3124 3120 3113 3111 3107 3103 3100 3099 3098 3097 3094 3089 3085 3073 3063 3064 3063 3064 3062 3061
3114 3115 3117 3118 3119 3120 3121 3121 3122 3122 3124 3127 3127 3125 3125 3122 3123 3127 3127 3127 3125 3126 3125 3124 3124 3122 3120 3116 3112 3106 3103 3100 3096 3091 3089 3088 3087 3087 3082 3075 3068 3059 3058 3056 3056 3051 3052
3104 3106 3108 3110 3112 3113 3113 3114 3115 3116 3116 3118 3120 3118 3117 3113 3115 3118 3119 3118 3118 3117 3115 3114 3114 3113 3111 3105 3102 3097 3093 3093 3087 3084 3081 3080 3076 3072 3068 3061 3055 3053 3053 3052 3052 3051 3046
3093 3096 3099 3100 3103 3104 3105 3107 3108 3109 3109 3110 3112 3111 3111 3105 3105 3109 3109 3108 3109 3108 3108 3107 3105 3100 3100 3097 3092 3086 3080 3079 3074 3075 3073 3072 3068 3062 3059 3056 3050 3047 3046 3049 3045 3041 3039
3084 3086 3088 3091 3092 3095 3097 3098 3100 3101 3101 3101 3103 3103 3101 3099 3095 3098 3100 3101 3102 3102 3101 3098 3097 3093 3090 3084 3081 3076 3070 3068 3066 3063 3063 3061 3058 3054 3053 3045 3042 3041 3039 3037 3034 3032 3032